Regional Weather Roundup
Issued by NWS

Home | Current Version | Previous Version | Text Only | Print | Product List | Glossary On
Versions: 1 2 3 4 5 6 7 8 9 10 11 12 13 14 15 16 17 18 19 20 21 22 23 24 25 26 27 28 29 30 31 32 33 34 35 36 37 38 39 40 41 42 43 44 45 46 47 48 49 50
000
ASUS43 KLSX 011307
RWRMO

WEATHER SUMMARY FOR MISSOURI
NATIONAL WEATHER SERVICE SPRINGFIELD MO
800 AM CDT SAT AUG 01 2015

NOTE: "FAIR" INDICATES FEW OR NO CLOUDS BELOW 12,000 FEET WITH NO
       SIGNIFICANT WEATHER AND/OR OBSTRUCTIONS TO VISIBILITY.
       CURRENT SKY AND/OR WEATHER CONDITIONS ARE NOT AVAILABLE FOR
       CHILLICOTHE AND FARMINGTON.

MOZ001>031-035>038-043-044-053-054-011400-
...NORTHERN AND WESTERN MISSOURI...

CITY           SKY/WX    TMP DP  RH WIND       PRES   REMARKS
KANSAS CTY INT MOSUNNY   75  71  87 SW5       30.06R
KANSAS C DTWN  SUNNY     79  72  79 SW3       30.04S
LEE`S SUMMIT   SUNNY     77  71  82 W7        30.07R
ST JOSEPH      MOSUNNY   72  71  97 CALM      30.05R
CHILLICOTHE      N/A     75  68  78 CALM      30.06S
KIRKSVILLE     LGT RAIN  73  67  81 SE5       30.07S

$$
MOZ066>068-077>081-088>096-101>105-011400-
...SOUTHWEST MISSOURI...

CITY           SKY/WX    TMP DP  RH WIND       PRES   REMARKS
SPRINGFIELD    SUNNY     70  64  81 S5        30.10R
JOPLIN         SUNNY     71  64  78 S5        30.09S

$$
MOZ032>034-039>042-045>050-055>058-069>072-011400-
...CENTRAL MISSOURI...

CITY           SKY/WX    TMP DP  RH WIND       PRES   REMARKS
COLUMBIA       SUNNY     76  68  76 SW3       30.06R
JEFFERSON CITY SUNNY     73  69  87 CALM      30.05S
ROLLA          SUNNY     70  65  84 SW5       30.07S
SEDALIA        SUNNY     77  69  76 W6        30.07S
WHITEMAN AFB   SUNNY     75  69  81 W2        30.05S
WARRENSBURG    SUNNY     72  68  88 CALM      30.05S
OSAGE BEACH    SUNNY     70  64  83 CALM      30.08S

$$
MOZ051-052-059>065-011400-
...EAST CENTRAL MISSOURI...

CITY           SKY/WX    TMP DP  RH WIND       PRES   REMARKS
ST LOUIS INTL  PTSUNNY   77  65  66 E3        30.06S
SPIRIT OF STL  PTSUNNY   72  70  93 CALM      30.04F
ST CHARLES     PTSUNNY   74  69  85 CALM      30.05R

$$
MOZ072>076-082>087-097>100-106>115-011400-
...SOUTH CENTRAL AND SOUTHEAST MISSOURI...

CITY           SKY/WX    TMP DP  RH WIND       PRES   REMARKS
CAPE GIRARDEAU SUNNY     74  69  85 CALM      30.04R
FARMINGTON     SUNNY     68  64  88 CALM      30.11S
POPLAR BLUFF   SUNNY     74  68  81 NW3       30.04R
WEST PLAINS    SUNNY     75  60  59 W3        30.12R

$$



USA.gov is the U.S. government's official web portal to all federal, state and local government web resources and services.